Regional Weather Roundup
Issued by NWS Charleston, SC

Current Version | Previous Version | Text Only | Print | Product List | Glossary Off
Versions: 1 2 3 4 5 6 7 8 9 10 11 12 13 14 15 16 17 18 19 20 21 22 23 24 25 26 27 28 29 30 31 32 33 34 35 36 37 38 39 40 41 42 43 44 45 46 47 48 49 50

000
ASUS42 KCHS 231826
RWRCHS

REGIONAL WEATHER ROUNDUP
NATIONAL WEATHER SERVICE CHARLESTON SC
100 PM EST THU FEB 23 2017

NOTE: "FAIR" INDICATES FEW OR NO CLOUDS BELOW 12,000 FEET WITH NO
SIGNIFICANT WEATHER AND/OR OBSTRUCTIONS TO VISIBILITY.

NOT ALL STATIONS ARE QUALITY CONTROLLED. USE DATA WITH CAUTION...
ESPECIALLY DEWPOINT OBSERVATIONS.

SCZ027-030-031-034>040-042>050-231900-
...SOUTHEAST SOUTH CAROLINA...

CITY           SKY/WX    TMP DP  RH WIND       PRES   REMARKS
N CHARLESTON   PTSUNNY   78  57  48 E17G23    29.84F
6HR MIN TEMP:  61; 6HR MAX TEMP:  78; 6HR PCP: TRACE;

WATERFRONT PRK   N/A     70  62  76 E12G20    29.83F
MOUNT PLEASANT FAIR      73  63  68 NE10G22   29.84F
JOHNS ISLAND   FAIR      75  63  64 E21       29.84F
PINOPOLIS        N/A    N/A N/A N/A E7        29.79F
MONCKS CORNER  FAIR      73  54  49 NE12      29.84F
SUMMERVILLE    FAIR      73  55  53 E8        29.85F
BEAUFORT MCAS  LGT RAIN  74  62  66 NE10      29.83F
6HR MIN TEMP:  61; 6HR MAX TEMP:  76; 6HR PCP: TRACE;

BEAUFORT ARPT  FAIR      73  61  64 E18G28    29.83S
HILTON HEAD IS MOSUNNY   73  63  68 NE12G21   29.84F
WALTERBORO     PTCLDY    73  55  53 NE12      29.84F
ALLENDALE      MOCLDY    73  57  56 VRB3      29.83F

...SOUTHERN MIDLANDS AND PEE DEE...

CITY           SKY/WX    TMP DP  RH WIND       PRES   REMARKS
GEORGETOWN     MOCLDY    73  59  60 E13       29.88F
KINGSTREE      MOCLDY    72  54  53 NE5       29.86F
ORANGEBURG     MOSUNNY   75  55  49 VRB7      29.86F
6HR MIN TEMP:  57; 6HR MAX TEMP:  75;

BARNWELL       MOCLDY    77  55  47 E6G15     29.85F
AIKEN          FAIR      72  52  49 NE5       29.89F
MANNING        FAIR      72  30  21 MISG      29.86F
COLUMBIA       PTSUNNY   74  53  48 NE6       29.86F
6HR MIN TEMP:  54; 6HR MAX TEMP:  75;

SUMTER         PTSUNNY   76  53  46 NE9       29.85F
6HR MIN TEMP:  52; 6HR MAX TEMP:  76;

FLORENCE       PTSUNNY   73  55  53 SE12      29.89F
6HR MIN TEMP:  54; 6HR MAX TEMP:  75;

MYRTLE BEACH   NOT AVBL
N MYRTLE BEACH MOSUNNY   73  57  57 E15G22    29.89F
6HR MIN TEMP:  57; 6HR MAX TEMP:  74;


$$

GAZ063-065-086>088-099>101-113>116-118-119-134>141-150-231900-
...SOUTHEAST GEORGIA...

CITY           SKY/WX    TMP DP  RH WIND       PRES   REMARKS
SAVANNAH ARPT  PTSUNNY   76  60  57 NE15G21   29.82F
6HR MIN TEMP:  60; 6HR MAX TEMP:  77;

HUNTER AAF     MOSUNNY   73  65  74 NE8G20    29.80F
6HR MIN TEMP:  62; 6HR MAX TEMP:  74;

FORT STEWART   PTSUNNY   74  61  64 NE9G20    29.79F
6HR MIN TEMP:  60; 6HR MAX TEMP:  74;

STATESBORO     CLOUDY    76  62  62 NE6       29.82F
SYLVANIA       CLOUDY   N/A N/A N/A E10G16    29.84F
CLAXTON        MOCLDY    76  76 100 NE13      29.82F

...CSRA...CENTRAL AND FAR SOUTHEAST GEORGIA...

CITY           SKY/WX    TMP DP  RH WIND       PRES   REMARKS
THOMSON        SUNNY     76  57  51 E3        29.89F
AUGUSTA-BUSH   PTSUNNY   76  55  48 NE9       29.85F
6HR MIN TEMP:  55; 6HR MAX TEMP:  78;

AUGUSTA-DANIEL MOSUNNY   74  52  46 VRB5      29.87F
SWAINSBORO     FAIR      75  55  50 E10G16    29.85F
VIDALIA        CLOUDY    73  63  68 E12       29.82F
EASTMAN        MOCLDY    77  44  30 E9        29.85F
HAZLEHURST     MOCLDY    76  62  62 NE7       29.80F
ALMA           MOSUNNY   77  62  59 E9G21     29.80F
6HR MIN TEMP:  61; 6HR MAX TEMP:  77;

WAYCROSS       PTSUNNY   78  66  66 E15       29.79F
JESUP          MOCLDY    75  61  60 E12G22    29.80F
BAXLEY         PTSUNNY   79  64  61 NE16      29.79F
BRUNSWICK      CLOUDY    77  66  69 NE23      29.79F
SAINT SIMONS   CLOUDY    72  62  71 NE22G30   29.79F
6HR MIN TEMP:  64; 6HR MAX TEMP:  73;


$$

SCZ027-028-034-036>038-045-046-048>050-GAZ119-141-231900-
...LAKE AND SUPPLEMENTAL COASTAL OBSERVATIONS...

STATION/POSITION TIME  TEMP    WIND        PRES    WAVE   SWELL
                       AIR SEA DIR/SP/G            HT/PER HT/PER/DIR
                 (UTC) (F)     (DEG/KT/KT) (MB)    (FT/S) (FT/S/D)
WINYAH BAY       1730   66      60/ 13     1012.0S
LAKE MURRAY      1750   71     110/  3/  8 1011.2F
ACE BASIN NERRS  1730   73      50/  6     1010.0F
FORT PULASKI     1800   68 62   60/ 16/ 21 1010.1
SAPELO ISLAND    1800   73      50/ 17     1009.0

$$

ANZ835-935-AMZ111-154-330-350-352-354-370-450-454-472-231900-
...C-MAN AND BUOY OBSERVATIONS...

STATION/POSITION TIME  TEMP    WIND        PRES    WAVE   SWELL
                       AIR SEA DIR/SP/G            HT/PER HT/PER/DIR
                 (UTC) (F)     (DEG/KT/KT) (MB)    (FT/S) (FT/S/D)
BUOY 41004       1750   71 69   80/ 16/ 17 1009.7F   8/ 8   7/140/ 8
BUOY 41008       1750   64 62   30/ 17/ 19 1008.3F   7/ 8   5/130/ 8
FOLLY BEACH CMAN 1800   65      50/ 17/ 21 1011.1F
CAPERS NEARSHORE 1708   63 60   50/ 16/ 19 1011.3F
FRIPP NEARSHORE  1808   64 61   50/ 14/ 19 1010.0F


STATION/POSITION TIME  TEMP    WIND        PRES    WAVE   SWELL
                       AIR SEA DIR/SP/G            HT/PER HT/PER/DIR
                 (UTC) (F)     (DEG/KT/KT) (MB)    (FT/S) (FT/S/D)
5E ST. MARYS GA  1800      64                N/A     8/ 9   2/110/11
FRYING PAN BUOY  1810   70 70  120/ 14/ 17 1011.6
BUOY 41025       1750   70 74  130/ 12/ 16 1014.0F   4/ 6   3/ 50/11
CAPE LOOKOUT NC  1800   67     150/  6/  7 1013.0F
BUOY 41002       1750   69 70  100/ 19/ 23 1011.1F   8/ 7   3/ 80/10
BUOY 41010       NOT AVBL
ST AUGUSTINE FL  1800   67 67   10/ 21/ 25 1006.7F


$$



USA.gov is the U.S. government's official web portal to all federal, state and local government web resources and services.